Le nostre stazioni meteo in Italia

Pubblicità
Il mio iltempo24.it
Gioia Del Colle, Italia (16312): Temperatura & dewpoint: 15.04.2019 09:00:00 - 21.04.2019 09:00:00 (CEST)Gioia Del Colle, Italia (16312): velocità del vento: 15.04.2019 09:00:00 - 21.04.2019 09:00:00 (CEST)Gioia Del Colle, Italia (16312): direzione del vento: 15.04.2019 09:00:00 - 21.04.2019 09:00:00 (CEST)Gioia Del Colle, Italia (16312): reduced air pressure: 15.04.2019 09:00:00 - 21.04.2019 09:00:00 (CEST)Gioia Del Colle, Italia (16312): visibility: 15.04.2019 09:00:00 - 21.04.2019 09:00:00 (CEST)
Data & Tempo tt [°C] td [°C] ff [km/h] ff [kn] dd ppp [hPa] vv [km]
21.04.2019 09:00:00 - - - - - - -
21.04.2019 08:00:00 8,8 8,1 2 1 N 1022,8 10
21.04.2019 07:00:00 7,0 6,0 4 2 SO - 10
21.04.2019 06:00:00 6,0 6,0 4 2 - - 10
21.04.2019 05:00:00 6,4 6,0 2 1 N 1023,0 10
21.04.2019 04:00:00 7,0 6,0 4 2 NO - 10
21.04.2019 03:00:00 7,0 6,0 4 2 NNO - 10
21.04.2019 02:00:00 7,2 6,0 2 1 N 1023,9 10
21.04.2019 01:00:00 8,0 6,0 4 2 NO - 10
21.04.2019 00:00:00 8,0 7,0 2 1 ONO - 10
20.04.2019 23:00:00 9,8 7,7 8 4 N 1023,7 10
20.04.2019 22:00:00 10,0 7,0 2 1 - - 10
20.04.2019 21:00:00 11,0 8,0 4 2 N - 10
20.04.2019 20:00:00 13,0 6,6 5 3 NNE 1023,4 10
20.04.2019 19:00:00 15,0 3,0 13 7 N - 10
20.04.2019 18:00:00 17,0 2,0 13 7 N - 10
20.04.2019 17:00:00 17,0 1,8 15 8 N 1023,2 10
20.04.2019 16:00:00 18,0 3,0 16 9 NNE - 10
20.04.2019 15:00:00 18,0 4,0 15 8 N - 10
20.04.2019 14:00:00 18,0 5,9 13 7 N 1023,8 10
20.04.2019 13:00:00 17,0 6,0 13 7 N - 10
20.04.2019 12:00:00 17,0 9,0 13 7 NNE - 10
20.04.2019 11:00:00 16,2 8,4 16 9 N 1024,4 10
20.04.2019 10:00:00 15,0 8,0 22 12 N - 10
20.04.2019 09:00:00 14,0 6,0 18 10 NNO - 10
20.04.2019 08:00:00 12,2 5,4 16 9 NNO 1024,6 10
20.04.2019 07:00:00 10,0 6,0 11 6 NNO - 10
20.04.2019 06:00:00 9,0 4,0 11 6 NNO - 10
20.04.2019 05:00:00 7,8 5,4 5 3 N 1024,8 10
20.04.2019 04:00:00 8,0 7,0 5 3 NNO - 10
20.04.2019 03:00:00 8,0 7,0 4 2 NO - 10
20.04.2019 02:00:00 8,6 7,8 5 3 NNO 1026,7 10
20.04.2019 01:00:00 10,0 7,0 9 5 NNO - 10
20.04.2019 00:00:00 10,0 7,0 9 5 NNO - 10
19.04.2019 23:00:00 10,0 6,5 9 5 NNO 1026,3 10
19.04.2019 22:00:00 10,0 8,0 11 6 NNO - 10
19.04.2019 21:00:00 10,0 7,0 9 5 NO - 10
19.04.2019 20:00:00 13,6 2,8 5 3 N 1025,2 10
19.04.2019 19:00:00 15,0 2,0 11 6 NNE - 10
19.04.2019 18:00:00 16,0 1,0 11 6 N - 10
19.04.2019 17:00:00 15,8 1,5 15 8 NNE 1025,1 10
19.04.2019 16:00:00 17,0 2,0 18 10 NNE - 10
19.04.2019 15:00:00 16,0 3,0 16 9 N - 10
19.04.2019 14:00:00 16,4 3,8 16 9 N 1025,6 10
19.04.2019 13:00:00 16,0 6,0 22 12 N - 10
19.04.2019 12:00:00 16,0 9,0 18 10 N - 10
19.04.2019 11:00:00 14,8 8,3 18 10 N 1026,2 10
19.04.2019 10:00:00 14,0 8,0 16 9 N - 10
19.04.2019 09:00:00 13,0 8,0 15 8 N - 10
19.04.2019 08:00:00 11,2 6,5 11 6 N 1025,2 10
19.04.2019 07:00:00 9,0 5,0 13 7 NO - 10
19.04.2019 06:00:00 6,0 4,0 5 3 NO - 10
19.04.2019 05:00:00 6,6 5,2 5 3 NNO 1025,5 10
19.04.2019 04:00:00 8,0 6,0 5 3 NO - 10
19.04.2019 03:00:00 8,0 7,0 8 4 NO - 8
19.04.2019 02:00:00 8,0 8,0 5 3 NO 1025,2 8
19.04.2019 01:00:00 8,0 8,0 8 4 ONO - 8
19.04.2019 00:00:00 9,0 9,0 8 4 NE - 8
18.04.2019 23:00:00 10,2 8,8 9 5 NNO 1024,2 10
18.04.2019 22:00:00 11,0 8,0 15 8 N - 10
18.04.2019 21:00:00 11,0 8,0 16 9 N - 10
18.04.2019 20:00:00 11,6 7,7 15 8 N 1022,5 10
18.04.2019 19:00:00 13,0 4,0 18 10 N - 10
18.04.2019 18:00:00 15,0 2,0 18 10 N - 10
18.04.2019 17:00:00 15,2 2,4 18 10 N 1020,9 10
18.04.2019 16:00:00 16,0 6,0 16 9 N - 10
18.04.2019 15:00:00 15,0 7,0 21 11 N - 10
18.04.2019 14:00:00 15,4 8,6 21 11 N 1020,6 10
18.04.2019 13:00:00 16,0 9,0 22 12 N - 10
18.04.2019 12:00:00 15,0 8,0 21 11 NNO - 10
18.04.2019 11:00:00 15,0 7,3 16 9 NNO 1020,7 10
18.04.2019 10:00:00 14,0 8,0 13 7 N - 10
18.04.2019 09:00:00 11,0 6,0 18 10 NO - 10
18.04.2019 08:00:00 7,0 4,5 5 3 ONO 1021,3 10
18.04.2019 07:00:00 4,0 2,0 8 4 N - 10
18.04.2019 06:00:00 5,0 4,0 5 3 N - 10
18.04.2019 05:00:00 5,2 2,0 4 2 O 1020,9 10
18.04.2019 04:00:00 5,0 2,0 8 4 ONO - 10
18.04.2019 03:00:00 5,0 4,0 5 3 NNO - 10
18.04.2019 02:00:00 5,4 2,2 5 3 ONO 1021,0 10
18.04.2019 01:00:00 5,0 4,0 4 2 NNO - 10
18.04.2019 00:00:00 5,0 4,0 4 2 NNO - 10
17.04.2019 23:00:00 6,0 4,5 8 4 O 1020,9 10
17.04.2019 22:00:00 8,0 5,0 5 3 NNO - 10
17.04.2019 21:00:00 9,0 3,0 2 1 - - 10
17.04.2019 20:00:00 12,6 1,9 8 4 NNE 1018,2 10
17.04.2019 19:00:00 14,0 1,0 11 6 NNO - 10
17.04.2019 18:00:00 15,0 2,0 15 8 N - 10
17.04.2019 17:00:00 15,2 4,9 16 9 N 1017,8 10
17.04.2019 16:00:00 15,0 7,0 16 9 N - 10
17.04.2019 15:00:00 15,0 6,0 21 11 NNE - 10
17.04.2019 14:00:00 15,8 7,6 21 11 N 1017,8 10
17.04.2019 13:00:00 16,0 2,0 11 6 NNO - 10
17.04.2019 12:00:00 15,0 3,0 9 5 NNO - 10
17.04.2019 11:00:00 15,0 3,8 11 6 N 1018,3 10
17.04.2019 10:00:00 14,0 5,0 8 4 NO - 10
17.04.2019 09:00:00 12,0 8,0 9 5 N - 10
17.04.2019 08:00:00 9,8 8,2 9 5 NO 1018,4 8
17.04.2019 07:00:00 8,0 7,0 8 4 NNO - 8
17.04.2019 06:00:00 7,0 7,0 8 4 N - 7
17.04.2019 05:00:00 7,0 6,7 5 3 NNE 1018,4 7
17.04.2019 04:00:00 7,0 6,0 5 3 NNE - 7
17.04.2019 03:00:00 9,0 8,0 5 3 NNO - 7
17.04.2019 02:00:00 8,6 7,8 4 2 N 1018,9 7
17.04.2019 01:00:00 9,0 8,0 8 4 NO - 7
17.04.2019 00:00:00 8,0 8,0 5 3 O - 7
16.04.2019 23:00:00 9,4 9,3 4 2 ONO 1019,3 7
16.04.2019 22:00:00 10,0 10,0 8 4 SO - 7
16.04.2019 21:00:00 10,0 9,0 4 2 SO - 8
16.04.2019 20:00:00 10,4 8,8 5 3 NNE 1018,7 10
16.04.2019 19:00:00 14,0 11,0 11 6 N - 10
16.04.2019 18:00:00 14,0 9,0 16 9 N - 10
16.04.2019 17:00:00 15,0 7,3 16 9 N 1017,8 10
16.04.2019 16:00:00 15,0 7,0 16 9 N - 10
16.04.2019 15:00:00 16,0 6,0 18 10 N - 10
16.04.2019 14:00:00 15,2 4,9 15 8 N 1018,1 10
16.04.2019 13:00:00 15,0 6,0 16 9 N - 10
16.04.2019 12:00:00 15,0 7,0 16 9 NNO - 10
16.04.2019 11:00:00 14,0 6,4 16 9 NNO 1018,1 10
16.04.2019 10:00:00 14,0 8,0 18 10 N - 10
16.04.2019 09:00:00 11,0 6,0 13 7 NNO - 10
16.04.2019 08:00:00 9,0 6,4 9 5 NO 1018,1 10
16.04.2019 07:00:00 7,0 5,0 5 3 ONO - 10
16.04.2019 06:00:00 6,0 5,0 4 2 - - 10
16.04.2019 05:00:00 6,4 5,7 8 4 NNO 1017,2 10
16.04.2019 04:00:00 7,0 6,0 8 4 NO - 10
16.04.2019 03:00:00 7,0 6,0 11 6 ONO - 10
16.04.2019 02:00:00 8,0 7,4 11 6 ONO 1017,3 10
16.04.2019 01:00:00 8,0 7,0 11 6 ONO - 9
16.04.2019 00:00:00 9,0 8,0 13 7 NO - 9
15.04.2019 23:00:00 8,8 7,9 11 6 NO 1016,9 9
15.04.2019 22:00:00 10,0 8,0 13 7 N - 9
15.04.2019 21:00:00 10,0 8,0 15 8 NNO - 9
15.04.2019 20:00:00 11,0 9,3 13 7 NNO 1014,4 8
15.04.2019 19:00:00 12,0 7,0 18 10 N - 10
15.04.2019 18:00:00 13,0 8,0 22 12 N - 10
15.04.2019 17:00:00 13,8 8,2 22 12 N 1012,3 10
15.04.2019 16:00:00 14,0 9,0 22 12 N - 10
15.04.2019 15:00:00 14,0 9,0 24 13 N - 10
15.04.2019 14:00:00 13,2 8,3 24 13 NNE 1011,6 10
15.04.2019 13:00:00 13,0 10,0 16 9 NNE - 10
15.04.2019 12:00:00 11,0 10,0 13 7 NNE - 9
15.04.2019 11:00:00 10,0 6,9 13 7 NNE 1011,2 10
15.04.2019 10:00:00 10,0 7,0 13 7 NNO - 10
15.04.2019 09:00:00 9,0 8,0 11 6 NNO - 10

tt = Temperatura
td = dewpoint
ff = velocità del vento
dd = direzione del vento
ppp = reduced air pressure
vv = visibility

Stazioni seguenti

WeatherPro
AMSI
MeteoEarth